EZY19 LFMN-EGKK

Flight info

Callsign EZY19
Flight time 1h 29m
Altitude 340000
Route BADO8A BADOD DCT NEDRU DCT LTP DCT BULOL DCT IDAVO DCT BAGBI DCT SIZZA DCT LAULY DCT BRY DCT CLM DCT KOPOR DCT KESAX DCT KUNAV KUNA1G
Aircraft A320/M-SDE3FGHIRWY/LB1

Departure

Time 2026-05-04 12:57
Airport Nice-Côte d'Azur Airport (LFMN)

Arrival

Time 2026-05-04 14:27
Airport London Gatwick Airport (EGKK)
Time Latitude Longitude Altitude Speed Heading
2026-05-04 12:33 43.65890 7.20668 22 ft 0 kts 315°
2026-05-04 12:48 43.65888 7.20671 22 ft 2 kts 315°
2026-05-04 12:48 43.65870 7.20696 22 ft 4 kts 318°
2026-05-04 12:49 43.65848 7.20717 22 ft 4 kts 340°
2026-05-04 12:49 43.65825 7.20720 22 ft 4 kts 30°
2026-05-04 12:49 43.65815 7.20710 23 ft 1 kts 45°
2026-05-04 12:49 43.65814 7.20709 22 ft 0 kts 45°
2026-05-04 12:52 43.65834 7.20737 22 ft 7 kts 45°
2026-05-04 12:52 43.65867 7.20786 22 ft 7 kts 56°
2026-05-04 12:53 43.65861 7.20851 22 ft 8 kts 147°
2026-05-04 12:53 43.65811 7.20864 22 ft 9 kts 171°
2026-05-04 12:53 43.65735 7.20881 22 ft 13 kts 171°
2026-05-04 12:53 43.65626 7.20906 22 ft 18 kts 171°
2026-05-04 12:54 43.65488 7.20936 22 ft 22 kts 171°
2026-05-04 12:54 43.65346 7.20940 22 ft 20 kts 207°
2026-05-04 12:54 43.65242 7.20812 22 ft 19 kts 225°
2026-05-04 12:54 43.65156 7.20692 22 ft 17 kts 225°
2026-05-04 12:55 43.65067 7.20567 22 ft 20 kts 226°
2026-05-04 12:55 43.64961 7.20421 22 ft 23 kts 225°
2026-05-04 12:55 43.64855 7.20285 22 ft 17 kts 208°
2026-05-04 12:55 43.64771 7.20350 22 ft 16 kts 98°
2026-05-04 12:56 43.64826 7.20460 22 ft 10 kts 43°
2026-05-04 12:56 43.64834 7.20471 22 ft 0 kts 45°
2026-05-04 12:57 43.64946 7.20627 22 ft 57 kts 45°
2026-05-04 12:57 43.65373 7.21216 26 ft 117 kts 45°
2026-05-04 12:57 43.66058 7.22178 86 ft 157 kts 49°
2026-05-04 12:57 43.66736 7.23330 780 ft 154 kts 65°
2026-05-04 12:58 43.66865 7.24771 1405 ft 161 kts 103°
2026-05-04 12:58 43.66205 7.26169 1679 ft 188 kts 131°
2026-05-04 12:58 43.65179 7.27421 2063 ft 204 kts 135°
2026-05-04 12:58 43.64097 7.28733 2765 ft 208 kts 136°
2026-05-04 12:59 43.63017 7.30074 3564 ft 210 kts 139°
2026-05-04 12:59 43.61738 7.30997 4292 ft 216 kts 167°
2026-05-04 12:59 43.60232 7.30880 5004 ft 224 kts 199°
2026-05-04 12:59 43.58969 7.29606 5707 ft 233 kts 233°
2026-05-04 13:00 43.58415 7.27510 6420 ft 239 kts 268°
2026-05-04 13:00 43.58683 7.25232 7128 ft 243 kts 283°
2026-05-04 13:00 43.59101 7.22962 7881 ft 245 kts 284°
2026-05-04 13:00 43.59530 7.20679 8623 ft 247 kts 284°
2026-05-04 13:01 43.59960 7.18374 9357 ft 249 kts 283°
2026-05-04 13:01 43.60391 7.16052 10098 ft 251 kts 283°
2026-05-04 13:01 43.60921 7.13789 10814 ft 253 kts 295°
2026-05-04 13:01 43.61925 7.11754 11383 ft 267 kts 311°
2026-05-04 13:02 43.63392 7.09998 11633 ft 291 kts 318°
2026-05-04 13:02 43.65018 7.08160 11856 ft 314 kts 318°
2026-05-04 13:02 43.66771 7.06174 12052 ft 337 kts 318°
2026-05-04 13:02 43.68617 7.04075 12510 ft 348 kts 318°
2026-05-04 13:03 43.70501 7.01931 13173 ft 353 kts 318°
2026-05-04 13:03 43.72404 6.99764 13859 ft 356 kts 318°
2026-05-04 13:03 43.74328 6.97573 14526 ft 360 kts 318°
2026-05-04 13:03 43.76237 6.95392 15166 ft 363 kts 318°
2026-05-04 13:04 43.78186 6.93156 15823 ft 366 kts 317°
2026-05-04 13:04 43.80151 6.90892 16448 ft 369 kts 317°
2026-05-04 13:04 43.82130 6.88611 17070 ft 372 kts 317°
2026-05-04 13:04 43.84124 6.86312 17651 ft 375 kts 317°
2026-05-04 13:05 43.86133 6.83997 18234 ft 377 kts 317°
2026-05-04 13:05 43.88160 6.81661 18792 ft 380 kts 317°
2026-05-04 13:05 43.90199 6.79312 19329 ft 383 kts 317°
2026-05-04 13:05 43.92228 6.76970 19850 ft 386 kts 317°
2026-05-04 13:06 43.94343 6.74658 20357 ft 390 kts 323°
2026-05-04 13:06 43.96687 6.72715 20840 ft 395 kts 327°
2026-05-04 13:06 43.99075 6.70811 21339 ft 397 kts 327°
2026-05-04 13:06 44.01476 6.68896 21827 ft 399 kts 327°
2026-05-04 13:07 44.03893 6.66963 22283 ft 402 kts 327°
2026-05-04 13:07 44.06325 6.65010 22731 ft 405 kts 326°
2026-05-04 13:07 44.08770 6.63040 23166 ft 408 kts 326°
2026-05-04 13:07 44.11198 6.61086 23592 ft 409 kts 326°
2026-05-04 13:08 44.13675 6.59095 24021 ft 412 kts 326°
2026-05-04 13:08 44.16164 6.57091 24428 ft 415 kts 326°
2026-05-04 13:08 44.18664 6.55074 24832 ft 417 kts 326°
2026-05-04 13:08 44.21177 6.53043 25231 ft 419 kts 326°
2026-05-04 13:09 44.23701 6.50997 25634 ft 421 kts 326°
2026-05-04 13:09 44.26238 6.48939 26029 ft 422 kts 326°
2026-05-04 13:09 44.28784 6.46873 26396 ft 424 kts 326°
2026-05-04 13:09 44.31309 6.44825 26777 ft 427 kts 326°
2026-05-04 13:10 44.33880 6.42739 27142 ft 428 kts 326°
2026-05-04 13:10 44.36462 6.40640 27507 ft 430 kts 325°
2026-05-04 13:10 44.39054 6.38531 27872 ft 432 kts 325°
2026-05-04 13:10 44.41659 6.36411 28230 ft 434 kts 325°
2026-05-04 13:11 44.44272 6.34283 28572 ft 436 kts 325°
2026-05-04 13:11 44.46898 6.32135 28876 ft 438 kts 325°
2026-05-04 13:11 44.49528 6.29976 29186 ft 439 kts 325°
2026-05-04 13:11 44.52165 6.27810 29498 ft 440 kts 324°
2026-05-04 13:12 44.54780 6.25662 29771 ft 442 kts 324°
2026-05-04 13:12 44.57440 6.23479 30040 ft 444 kts 324°
2026-05-04 13:12 44.60113 6.21287 30324 ft 446 kts 325°
2026-05-04 13:12 44.62794 6.19088 30580 ft 447 kts 325°
2026-05-04 13:13 44.65465 6.16890 30818 ft 449 kts 325°
2026-05-04 13:13 44.68168 6.14665 31048 ft 451 kts 325°
2026-05-04 13:13 44.70874 6.12434 31385 ft 451 kts 324°
2026-05-04 13:13 44.73572 6.10207 31740 ft 450 kts 325°
2026-05-04 13:14 44.76272 6.07978 32066 ft 450 kts 325°
2026-05-04 13:14 44.78932 6.05782 32369 ft 449 kts 325°
2026-05-04 13:14 44.81625 6.03554 32692 ft 449 kts 324°
2026-05-04 13:14 44.84314 6.01323 33023 ft 448 kts 324°
2026-05-04 13:15 44.87000 5.99090 33329 ft 448 kts 324°
2026-05-04 13:15 44.89690 5.96854 33585 ft 450 kts 324°
2026-05-04 13:15 44.92391 5.94611 33840 ft 451 kts 324°
2026-05-04 13:15 44.95096 5.92365 34016 ft 452 kts 324°
2026-05-04 13:16 44.97792 5.90124 34068 ft 446 kts 324°
2026-05-04 13:16 45.03069 5.85730 34073 ft 442 kts 324°
2026-05-04 13:17 45.08349 5.81278 34062 ft 442 kts 323°
2026-05-04 13:17 45.13532 5.76619 34069 ft 441 kts 321°
2026-05-04 13:18 45.18622 5.71863 34062 ft 441 kts 321°
2026-05-04 13:18 45.23757 5.67091 34058 ft 442 kts 322°
2026-05-04 13:19 45.28918 5.62355 34054 ft 442 kts 322°
2026-05-04 13:19 45.34082 5.57619 34050 ft 442 kts 322°
2026-05-04 13:20 45.39209 5.52886 34049 ft 443 kts 322°
2026-05-04 13:20 45.44376 5.48104 34047 ft 443 kts 322°
2026-05-04 13:21 45.49633 5.43483 34048 ft 448 kts 329°
2026-05-04 13:21 45.55367 5.39908 34048 ft 450 kts 332°
2026-05-04 13:22 45.61077 5.36388 34048 ft 450 kts 332°
2026-05-04 13:22 45.66824 5.32822 34048 ft 450 kts 332°
2026-05-04 13:23 45.72571 5.29248 34048 ft 451 kts 332°
2026-05-04 13:23 45.78325 5.25666 34035 ft 451 kts 332°
2026-05-04 13:24 45.84039 5.22089 34045 ft 451 kts 332°
2026-05-04 13:24 45.89791 5.18482 34045 ft 451 kts 332°
2026-05-04 13:25 45.98431 5.13076 34031 ft 452 kts 332°
2026-05-04 13:25 46.04204 5.09442 34037 ft 453 kts 332°
2026-05-04 13:26 46.09937 5.05805 34031 ft 454 kts 332°
2026-05-04 13:26 46.15713 5.02119 34035 ft 454 kts 332°
2026-05-04 13:27 46.21495 4.98422 34038 ft 454 kts 332°
2026-05-04 13:27 46.27241 4.94762 34028 ft 454 kts 332°
2026-05-04 13:28 46.33019 4.91062 34021 ft 455 kts 332°
2026-05-04 13:28 46.38809 4.87333 34016 ft 455 kts 332°
2026-05-04 13:29 46.44594 4.83606 34009 ft 455 kts 331°
2026-05-04 13:29 46.50385 4.79863 34003 ft 456 kts 331°
2026-05-04 13:30 46.56142 4.76140 34002 ft 456 kts 331°
2026-05-04 13:30 46.61943 4.72384 33997 ft 456 kts 331°
2026-05-04 13:31 46.67734 4.68620 33993 ft 456 kts 331°
2026-05-04 13:31 46.73487 4.64874 33990 ft 456 kts 331°
2026-05-04 13:32 46.79275 4.61093 33992 ft 456 kts 331°
2026-05-04 13:32 46.85063 4.57305 33990 ft 456 kts 331°
2026-05-04 13:33 46.90870 4.53539 33991 ft 457 kts 331°
2026-05-04 13:33 46.96679 4.49771 33994 ft 457 kts 331°
2026-05-04 13:34 47.02446 4.46006 33996 ft 457 kts 331°
2026-05-04 13:34 47.08251 4.42198 34001 ft 457 kts 331°
2026-05-04 13:35 47.16957 4.36474 34005 ft 457 kts 331°
2026-05-04 13:36 47.22724 4.32675 34005 ft 457 kts 331°
2026-05-04 13:36 47.28526 4.28849 34003 ft 457 kts 331°
2026-05-04 13:37 47.34324 4.25009 33995 ft 457 kts 331°
2026-05-04 13:37 47.40131 4.21158 33992 ft 458 kts 331°
2026-05-04 13:38 47.45894 4.17321 33992 ft 458 kts 331°
2026-05-04 13:38 47.51699 4.13451 33987 ft 458 kts 331°
2026-05-04 13:39 47.57508 4.09573 33983 ft 458 kts 331°
2026-05-04 13:39 47.63322 4.05693 33980 ft 458 kts 331°
2026-05-04 13:40 47.69099 4.01821 33977 ft 459 kts 330°
2026-05-04 13:40 47.74918 3.97905 33974 ft 459 kts 331°
2026-05-04 13:41 47.80741 3.93987 33972 ft 459 kts 331°
2026-05-04 13:41 47.86558 3.90055 33969 ft 459 kts 330°
2026-05-04 13:42 47.95252 3.84178 33967 ft 459 kts 331°
2026-05-04 13:42 48.01072 3.80225 33970 ft 459 kts 330°
2026-05-04 13:43 48.06878 3.76266 33968 ft 460 kts 330°
2026-05-04 13:43 48.12649 3.72289 33969 ft 458 kts 327°
2026-05-04 13:44 48.17756 3.66861 33967 ft 445 kts 310°
2026-05-04 13:44 48.21961 3.60127 33964 ft 442 kts 306°
2026-05-04 13:45 48.26131 3.53342 33965 ft 442 kts 307°
2026-05-04 13:45 48.30295 3.46543 33959 ft 442 kts 306°
2026-05-04 13:46 48.34426 3.39777 33967 ft 443 kts 306°
2026-05-04 13:46 48.38617 3.32987 33960 ft 445 kts 311°
2026-05-04 13:47 48.43745 3.27575 33954 ft 458 kts 330°
2026-05-04 13:47 48.49590 3.23822 33952 ft 460 kts 333°
2026-05-04 13:48 48.55495 3.20063 33961 ft 461 kts 333°
2026-05-04 13:48 48.61405 3.16266 33954 ft 461 kts 332°
2026-05-04 13:49 48.67312 3.12461 33958 ft 462 kts 333°
2026-05-04 13:49 48.73186 3.08682 33961 ft 461 kts 332°
2026-05-04 13:50 48.79091 3.04866 33962 ft 462 kts 332°
2026-05-04 13:50 48.84968 3.00940 33967 ft 458 kts 327°
2026-05-04 13:51 48.90478 2.96139 33964 ft 457 kts 325°
2026-05-04 13:51 48.95960 2.91353 33961 ft 457 kts 325°
2026-05-04 13:52 49.04223 2.84114 33965 ft 457 kts 325°
2026-05-04 13:53 49.09722 2.79267 33965 ft 456 kts 325°
2026-05-04 13:53 49.15217 2.74418 33958 ft 456 kts 325°
2026-05-04 13:54 49.23410 2.67168 33964 ft 455 kts 325°
2026-05-04 13:55 49.31639 2.59865 33962 ft 456 kts 325°
2026-05-04 13:55 49.39856 2.52513 33964 ft 456 kts 325°
2026-05-04 13:56 49.45297 2.47642 33959 ft 456 kts 325°
2026-05-04 13:57 49.53234 2.39760 33962 ft 447 kts 313°
2026-05-04 13:58 49.62629 2.27269 33966 ft 447 kts 314°
2026-05-04 13:58 49.69678 2.17913 33970 ft 447 kts 314°
2026-05-04 13:59 49.74371 2.11628 33965 ft 446 kts 314°
2026-05-04 14:00 49.81400 2.02183 33968 ft 446 kts 314°
2026-05-04 14:00 49.88408 1.92768 33970 ft 446 kts 314°
2026-05-04 14:01 49.93136 1.86367 33980 ft 457 kts 314°
2026-05-04 14:02 50.00346 1.76577 33999 ft 460 kts 314°
2026-05-04 14:02 50.02723 1.73348 33647 ft 459 kts 314°
2026-05-04 14:02 50.05111 1.70105 32679 ft 454 kts 314°
2026-05-04 14:02 50.07479 1.66885 31733 ft 449 kts 314°
2026-05-04 14:03 50.09819 1.63708 30811 ft 444 kts 315°
2026-05-04 14:03 50.12140 1.60562 29900 ft 439 kts 315°
2026-05-04 14:03 50.14430 1.57457 29005 ft 434 kts 315°
2026-05-04 14:03 50.16694 1.54384 28137 ft 428 kts 315°
2026-05-04 14:04 50.21055 1.48460 26928 ft 403 kts 315°
2026-05-04 14:04 50.23127 1.45650 26510 ft 388 kts 315°
2026-05-04 14:04 50.25152 1.42893 26084 ft 385 kts 315°
2026-05-04 14:05 50.29142 1.37417 25200 ft 379 kts 315°
2026-05-04 14:05 50.31107 1.34706 24771 ft 376 kts 315°
2026-05-04 14:05 50.33063 1.32010 24297 ft 374 kts 315°
2026-05-04 14:06 50.34984 1.29367 23851 ft 371 kts 315°
2026-05-04 14:06 50.36919 1.26708 23396 ft 369 kts 315°
2026-05-04 14:06 50.38844 1.24060 22941 ft 367 kts 315°
2026-05-04 14:06 50.40758 1.21421 22483 ft 365 kts 315°
2026-05-04 14:07 50.42659 1.18797 22048 ft 363 kts 315°
2026-05-04 14:07 50.44550 1.16180 21627 ft 361 kts 316°
2026-05-04 14:07 50.46430 1.13575 21175 ft 359 kts 316°
2026-05-04 14:07 50.48298 1.10991 20742 ft 357 kts 316°
2026-05-04 14:08 50.50159 1.08422 20318 ft 355 kts 316°
2026-05-04 14:08 50.51940 1.05837 19900 ft 352 kts 311°
2026-05-04 14:08 50.53608 1.03039 19481 ft 349 kts 311°
2026-05-04 14:08 50.55258 1.00261 19054 ft 347 kts 311°
2026-05-04 14:09 50.58525 0.94738 18237 ft 342 kts 311°
2026-05-04 14:09 50.60143 0.92008 17831 ft 340 kts 311°
2026-05-04 14:10 50.63349 0.86586 17023 ft 336 kts 311°
2026-05-04 14:10 50.64914 0.83927 16636 ft 334 kts 311°
2026-05-04 14:10 50.66489 0.81249 16255 ft 332 kts 311°
2026-05-04 14:10 50.68041 0.78569 15845 ft 331 kts 310°
2026-05-04 14:11 50.69534 0.75783 15345 ft 333 kts 308°
2026-05-04 14:11 50.72327 0.70240 14738 ft 315 kts 307°
2026-05-04 14:11 50.73519 0.67395 14181 ft 308 kts 298°
2026-05-04 14:12 50.74528 0.64434 13588 ft 305 kts 296°
2026-05-04 14:12 50.75511 0.61484 12983 ft 302 kts 296°
2026-05-04 14:12 50.77454 0.55611 12146 ft 300 kts 296°
2026-05-04 14:13 50.78421 0.52699 11801 ft 299 kts 296°
2026-05-04 14:13 50.79381 0.49808 11449 ft 297 kts 296°
2026-05-04 14:13 50.80338 0.46917 11093 ft 296 kts 296°
2026-05-04 14:13 50.81285 0.44033 10740 ft 295 kts 296°
2026-05-04 14:14 50.82210 0.41202 10408 ft 293 kts 296°
2026-05-04 14:14 50.83931 0.35441 9734 ft 288 kts 288°
2026-05-04 14:14 50.84540 0.32423 9285 ft 290 kts 287°
2026-05-04 14:15 50.85713 0.26277 8342 ft 293 kts 286°
2026-05-04 14:15 50.86879 0.20056 7381 ft 296 kts 286°
2026-05-04 14:16 50.87997 0.14026 7025 ft 278 kts 286°
2026-05-04 14:16 50.88539 0.11079 7027 ft 279 kts 286°
2026-05-04 14:17 50.89619 0.05190 7026 ft 278 kts 286°
2026-05-04 14:17 50.90155 0.02260 6774 ft 276 kts 286°
2026-05-04 14:17 50.91228 -0.03579 6431 ft 276 kts 286°
2026-05-04 14:18 50.91761 -0.06495 6307 ft 276 kts 286°
2026-05-04 14:18 50.92829 -0.12303 5902 ft 273 kts 286°
2026-05-04 14:19 50.93895 -0.18064 5400 ft 271 kts 286°
2026-05-04 14:19 50.94415 -0.20894 5166 ft 270 kts 286°
2026-05-04 14:19 50.94934 -0.23751 5013 ft 270 kts 286°
2026-05-04 14:19 50.95447 -0.26603 4927 ft 268 kts 286°
2026-05-04 14:20 50.95955 -0.29434 4582 ft 266 kts 286°
2026-05-04 14:20 50.96460 -0.32260 4338 ft 267 kts 286°
2026-05-04 14:20 50.96958 -0.35076 4098 ft 261 kts 286°
2026-05-04 14:21 50.98032 -0.40405 3603 ft 246 kts 304°
2026-05-04 14:21 50.99234 -0.42234 3470 ft 239 kts 327°
2026-05-04 14:21 51.00622 -0.43584 3185 ft 237 kts 330°
2026-05-04 14:21 51.02046 -0.44896 3001 ft 236 kts 331°
2026-05-04 14:22 51.03467 -0.46197 3002 ft 236 kts 333°
2026-05-04 14:22 51.05023 -0.46896 2969 ft 233 kts
2026-05-04 14:22 51.06553 -0.46233 2663 ft 230 kts 32°
2026-05-04 14:22 51.07826 -0.44690 2444 ft 230 kts 40°
2026-05-04 14:23 51.10205 -0.41426 2079 ft 220 kts 41°
2026-05-04 14:23 51.11336 -0.39847 1994 ft 218 kts 45°
2026-05-04 14:23 51.12163 -0.37837 1998 ft 215 kts 70°
2026-05-04 14:24 51.12509 -0.35623 1979 ft 200 kts 77°
2026-05-04 14:24 51.12795 -0.33561 1819 ft 182 kts 77°
2026-05-04 14:24 51.13057 -0.31687 1603 ft 166 kts 77°
2026-05-04 14:24 51.13293 -0.29995 1397 ft 149 kts 77°
2026-05-04 14:25 51.13510 -0.28437 1202 ft 140 kts 77°
2026-05-04 14:25 51.13922 -0.25459 847 ft 136 kts 78°
2026-05-04 14:25 51.14117 -0.23981 650 ft 136 kts 77°
2026-05-04 14:26 51.14337 -0.22506 463 ft 137 kts 77°
2026-05-04 14:26 51.14542 -0.21030 289 ft 136 kts 77°
2026-05-04 14:26 51.14737 -0.19581 211 ft 125 kts 78°
2026-05-04 14:26 51.14890 -0.18481 211 ft 78 kts 77°
2026-05-04 14:27 51.14967 -0.18018 209 ft 26 kts 66°
2026-05-04 14:27 51.15047 -0.17820 213 ft 12 kts 52°
2026-05-04 14:27 51.15090 -0.17753 211 ft 2 kts 34°
2026-05-04 14:27 51.15104 -0.17752 206 ft 2 kts 359°
2026-05-04 14:28 51.15123 -0.17754 206 ft 3 kts 355°
2026-05-04 14:28 51.15170 -0.17737 209 ft 8 kts 39°
2026-05-04 14:28 51.15189 -0.17661 214 ft 7 kts 77°
2026-05-04 14:28 51.15198 -0.17595 205 ft 5 kts 78°
2026-05-04 14:29 51.15218 -0.17452 205 ft 2 kts 77°
2026-05-04 14:29 51.15218 -0.17449 205 ft 0 kts 77°
2026-05-04 14:31 51.15222 -0.17420 209 ft 8 kts 77°
2026-05-04 14:32 51.15359 -0.17376 205 ft 18 kts 348°
2026-05-04 14:32 51.15470 -0.17416 208 ft 16 kts 347°
2026-05-04 14:32 51.15583 -0.17455 209 ft 17 kts 348°
2026-05-04 14:32 51.15700 -0.17494 205 ft 17 kts 348°
2026-05-04 14:33 51.15776 -0.17420 205 ft 15 kts 79°
2026-05-04 14:33 51.15798 -0.17246 205 ft 17 kts 78°
2026-05-04 14:33 51.15835 -0.17090 214 ft 11 kts 32°
2026-05-04 14:33 51.15905 -0.17051 205 ft 7 kts 22°
2026-05-04 14:34 51.15939 -0.17080 210 ft 5 kts 311°
2026-05-04 14:34 51.15962 -0.17119 205 ft 4 kts 315°
2026-05-04 14:34 51.15976 -0.17141 205 ft 0 kts 316°
2026-05-04 14:45 51.15971 -0.17150 213 ft 0 kts 322°